Regional Weather Roundup
Issued by NWS

Home | Current Version | Previous Version | Graphics & Text | Print | Product List | Glossary On
Versions: 1 2 3 4 5 6 7 8 9 10 11 12 13 14 15 16 17 18 19 20 21 22 23 24 25 26 27 28 29 30 31 32 33 34 35 36 37 38 39 40 41 42 43 44 45 46 47 48 49 50
000
ASUS44 KMEG 221600
RWRTN
TENNESSEE HOURLY STATE WEATHER ROUNDUP
NATIONAL WEATHER SERVICE MEMPHIS TN
1100 AM CDT FRI MAY 22 2015

TNZ002-004-019-021-049-052-054-088>092-221700-
WEST TENNESSEE

CITY           SKY/WX    TMP DP  RH WIND       PRES   REMARKS
MEMPHIS INTL   MOSUNNY   65  45  48 E10G16    30.29F
NWS MEMPHIS      N/A     65 N/A N/A MISG        N/A
JACKSON        SUNNY     65  46  50 E8        30.30F
DYERSBURG      SUNNY     64  39  39 SE3       30.31S
PARIS          SUNNY     63  45  51 VRB6      30.30F
LEXINGTON      SUNNY     63  45  51 VRB3      30.28F
$$

TNZ008-025-027-028-033-062-065-066-221700-
NORTH MIDDLE TENNESSEE

CITY           SKY/WX    TMP DP  RH WIND       PRES   REMARKS
NASHVILLE      PTSUNNY   66  45  46 NE8       30.31F
CLARKSVILLE    SUNNY     64  45  49 CALM      30.30F
COOKEVILLE     SUNNY     64  45  48 E7        30.30S
CROSSVILLE     SUNNY     60  43  53 NE9       30.32R
$$

TNZ061-075-076-078-094-096-097-221700-
SOUTH MIDDLE TENNESSEE

CITY           SKY/WX    TMP DP  RH WIND       PRES   REMARKS
FAYETTEVILLE   SUNNY    N/A N/A N/A MISG      30.28F
TULLAHOMA      SUNNY     61  43  51 NE8       30.30F
WINCHESTER     SUNNY     63  46  55 N10       30.29S
SHELBYVILLE    SUNNY     64  48  55 E8        30.31S
$$

TNZ017-018-042-046-047-221700-
NORTHEAST TENNESSEE

CITY           SKY/WX    TMP DP  RH WIND       PRES   REMARKS
TRI CITIES     MOSUNNY   62  40  44 VRB6      30.29S
$$

TNZ012-013-036-069-073-074-221700-
CENTRAL EAST TENNESSEE

CITY           SKY/WX    TMP DP  RH WIND       PRES   REMARKS
KNOXVILLE      MOSUNNY   65  43  44 NE9       30.29R
OAK RIDGE      SUNNY     65  42  43 E10       30.31S
GATLINBURG     SUNNY     63  39  42 E7        30.29S
$$

TNZ083-085-099-221700-
SOUTHEAST TENNESSEE

CITY           SKY/WX    TMP DP  RH WIND       PRES   REMARKS
CHATTANOOGA    MOSUNNY   65  43  44 NE13G22   30.28S
$$

SKY/WX REPORTED AS FAIR MEANS FEW OR NO CLOUDS BELOW
12 THOUSAND FEET.



USA.gov is the U.S. government's official web portal to all federal, state and local government web resources and services.